Showing default

COSMOS 2451, 35498

Orbit data source: Space-Track

COSMOS 2451, 35498 is a payload satellite owned by KVR (CIS) in LEO that was launched on Mon, 06 Jul 2009 UTC via an ROKOT launch vehicle from the Plesetsk Missile And Space Complex (PKMTR). Payload-class satellites include a variety of spacecraft equipped with specific instruments for various scientific and technological missions. These include communications satellites like Starlink; space stations such as the ISS; scientific satellites like the Hubble; Earth observation satellites from companies like Planet Labs, Umbra, and HawkEye 360; GPS; miniature CubeSats for education and research; and military/defense satellites.

Loading next visibility...
Identifier
35498, 2009-036A
Orbit
LEO
Country
Flag of CISCIS
Related business
Manufacturer
Resehetnev ISS
Mission
Operational Defense Communications
Bus & Motor
STRELA-3, Unknown motor
Mass
225 kg wet, 225 kg dry
Launch date (UTC)
2009-07-06 (17 years ago)
Launch vehicle
ROKOT
Launch site
Plesetsk Missile And Space Complex (PKMTR)
Object type
Payload
Rocket body
Debris
Shape & HBR
Cyl + 1 Ant, 3.5 m
Radar Cross Section
1.583 m², Medium (>0.1 m² and < 1m²)

Expand to show TLE details & history
Last TLE update: 9 hours ago

TLE from 9 hours ago
0 COSMOS 2451
1 35498U 09036A   26127.93954490  .00000000  00000-0 -68738-4 0  9995
2 35498  82.4840 117.3371 0005790 306.7361  53.3185 12.40869607762651
Epoch: 2026-05-07T22:32Z
TLE epoch observation values (Epoch: 2026-05-07T22:32:56.679Z)
Latitude
-0.00004°
Longitude
-86.67756°
Altitude
1,502.891 km
Speed
7.114 km/s
True Right ascension
07h 49m 20s
True Declination
0° 00' 00"
Sunlit
Object was in daylight at epoch
Visualization orbit readout
Latitude
Unknown
Longitude
Unknown
Altitude
Unknown
Speed
Unknown
Apparent Right ascension
Unknown
Apparent Declination
Unknown
Sunlit
N/A
Visualization observer readout
Local Sidereal Time
15:23:47
Azimuth
Unknown
Elevation
Unknown
Doppler factor
Unknown
Orbital elements
Apogee altitude
1,504.835 km
Perigee altitude
1,495.712 km
Semi-major axis
7,878.411 km
Eccentricity
0.00058
Inclination
82.484°
RAAN
117.3371°
Arg. of periapsis
306.7361°
True anomaly
53.37173°
Mean anomaly
53.3185°
Eccentric anomaly
53.34511°
Mean motion
3.10374 °/min
Orbital period
115.99 mins
BSTAR
-0.000068738
Loading maneuver chart data...
Computing Atmospheric mass density...
Loading historical data...
Loading historical data...
Loading historical data...
Loading historical data...
Loading historical data...
Loading historical data...
Loading historical data...
Other satellites on launch #36 in the year 2009 (2009-07-06 UTC)

Documentation

Showing up to 5 results
|